EN

Hourly Weather Abengourou

Today, 14 June, Monday

Time Temperature Precipitation Wind Pressure Humidity
00:00 +25°C° 0 mm 1 mps 742 mmHg 96%
01:00 +25°C° 0 mm 1 mps 742 mmHg 97%
02:00 +24°C° 0 mm 1 mps 742 mmHg 98%
03:00 +22°C° 0 mm 0 mps 741 mmHg 99%
04:00 +22°C° 0 mm 0 mps 742 mmHg 98%
05:00 +25°C° 0 mm 1 mps 742 mmHg 97%
06:00 +23°C° 0 mm 0 mps 742 mmHg 97%
07:00 +26°C° 0 mm 1 mps 743 mmHg 90%
08:00 +27°C° 0 mm 1 mps 743 mmHg 82%
09:00 +29°C° 0 mm 1 mps 744 mmHg 74%
10:00 +30°C° 0.1 mm 1 mps 743 mmHg 69%
11:00 +31°C° 0.1 mm 1 mps 743 mmHg 64%
12:00 +32°C° 0.1 mm 1 mps 743 mmHg 59%
13:00 +32°C° 0.3 mm 1 mps 742 mmHg 60%
14:00 +32°C° 0.3 mm 1 mps 741 mmHg 61%
15:00 +32°C° 0.3 mm 1 mps 741 mmHg 61%
16:00 +30°C° 0.9 mm 1 mps 741 mmHg 72%
17:00 +28°C° 0.9 mm 1 mps 741 mmHg 83%
18:00 +26°C° 0.9 mm 1 mps 741 mmHg 94%
19:00 +26°C° 0.4 mm 1 mps 741 mmHg 95%
20:00 +25°C° 0.4 mm 1 mps 742 mmHg 96%
21:00 +25°C° 0.4 mm 1 mps 742 mmHg 97%
22:00 +25°C° 0 mm 1 mps 742 mmHg 97%
23:00 +25°C° 0 mm 1 mps 742 mmHg 98%

Tomorrow, 15 June, Tuesday

Time Temperature Precipitation Wind Pressure Humidity
00:00 +25°C° 0 mm 1 mps 742 mmHg 98%
01:00 +25°C° 0 mm 1 mps 742 mmHg 98%
02:00 +25°C° 0 mm 1 mps 741 mmHg 98%
03:00 +25°C° 0 mm 1 mps 741 mmHg 98%
04:00 +24°C° 0 mm 1 mps 741 mmHg 98%
05:00 +24°C° 0 mm 1 mps 741 mmHg 99%
06:00 +24°C° 0 mm 1 mps 742 mmHg 99%
07:00 +25°C° 0 mm 1 mps 742 mmHg 93%
08:00 +27°C° 0 mm 2 mps 743 mmHg 87%
09:00 +28°C° 0 mm 2 mps 743 mmHg 81%
10:00 +29°C° 0 mm 2 mps 743 mmHg 74%
11:00 +30°C° 0 mm 2 mps 743 mmHg 68%
12:00 +31°C° 0 mm 2 mps 743 mmHg 61%
13:00 +32°C° 0 mm 2 mps 742 mmHg 61%
14:00 +32°C° 0 mm 1 mps 741 mmHg 60%
15:00 +32°C° 0 mm 1 mps 740 mmHg 59%
16:00 +30°C° 0.3 mm 1 mps 741 mmHg 69%
17:00 +29°C° 0.3 mm 1 mps 741 mmHg 79%
18:00 +27°C° 0.3 mm 1 mps 741 mmHg 89%
19:00 +26°C° 0 mm 1 mps 741 mmHg 91%
20:00 +26°C° 0 mm 1 mps 742 mmHg 93%
21:00 +25°C° 0 mm 1 mps 742 mmHg 95%
22:00 +25°C° 0.2 mm 1 mps 742 mmHg 96%
23:00 +25°C° 0.2 mm 1 mps 743 mmHg 97%

Day after tomorrow, 16 June, Wednesday

Time Temperature Precipitation Wind Pressure Humidity
00:00 +24°C° 0.2 mm 1 mps 743 mmHg 98%
01:00 +24°C° 0.2 mm 1 mps 743 mmHg 98%
02:00 +24°C° 0.2 mm 1 mps 742 mmHg 98%
03:00 +24°C° 0.2 mm 1 mps 742 mmHg 98%
04:00 +24°C° 0 mm 1 mps 742 mmHg 98%
05:00 +22°C° 0 mm 0 mps 742 mmHg 98%
06:00 +22°C° 0 mm 0 mps 743 mmHg 98%
07:00 +23°C° 0 mm 0 mps 743 mmHg 93%
08:00 +26°C° 0 mm 1 mps 744 mmHg 88%
09:00 +27°C° 0 mm 1 mps 744 mmHg 83%
10:00 +27°C° 1.1 mm 1 mps 744 mmHg 87%
11:00 +26°C° 1.1 mm 1 mps 743 mmHg 91%
12:00 +25°C° 1.1 mm 1 mps 742 mmHg 95%
13:00 +27°C° 0 mm 1 mps 742 mmHg 85%
14:00 +29°C° 0 mm 1 mps 742 mmHg 74%
15:00 +30°C° 0 mm 1 mps 741 mmHg 64%
16:00 +29°C° 0.3 mm 1 mps 741 mmHg 71%
17:00 +28°C° 0.3 mm 1 mps 741 mmHg 79%
18:00 +27°C° 0.3 mm 1 mps 742 mmHg 86%
19:00 +26°C° 0.1 mm 1 mps 742 mmHg 90%
20:00 +25°C° 0.1 mm 1 mps 743 mmHg 93%
21:00 +25°C° 0.1 mm 1 mps 743 mmHg 96%
22:00 +24°C° 0 mm 1 mps 743 mmHg 97%
23:00 +24°C° 0 mm 1 mps 743 mmHg 98%

17 June, Thursday

Time Temperature Precipitation Wind Pressure Humidity
00:00 +24°C° 0 mm 1 mps 743 mmHg 99%
01:00 +24°C° 0 mm 1 mps 743 mmHg 98%
02:00 +24°C° 0 mm 1 mps 743 mmHg 98%
03:00 +24°C° 0 mm 1 mps 742 mmHg 97%
04:00 +24°C° 0 mm 1 mps 743 mmHg 97%
05:00 +24°C° 0 mm 1 mps 743 mmHg 97%
06:00 +24°C° 0 mm 1 mps 743 mmHg 97%
07:00 +25°C° 0 mm 1 mps 743 mmHg 91%
08:00 +26°C° 0 mm 1 mps 744 mmHg 85%
09:00 +27°C° 0 mm 2 mps 744 mmHg 80%
10:00 +29°C° 0 mm 2 mps 744 mmHg 71%
11:00 +31°C° 0 mm 2 mps 744 mmHg 62%
12:00 +34°C° 0 mm 2 mps 743 mmHg 53%
13:00 +32°C° 0 mm 2 mps 743 mmHg 56%
14:00 +32°C° 0 mm 2 mps 742 mmHg 59%
15:00 +31°C° 0 mm 2 mps 742 mmHg 62%
16:00 +30°C° 0.1 mm 2 mps 742 mmHg 67%
17:00 +29°C° 0.1 mm 2 mps 742 mmHg 72%
18:00 +28°C° 0.1 mm 2 mps 742 mmHg 77%
19:00 +28°C° 0.1 mm 2 mps 742 mmHg 81%
20:00 +27°C° 0.1 mm 2 mps 742 mmHg 85%
21:00 +26°C° 0.1 mm 2 mps 743 mmHg 88%
22:00 +25°C° 0 mm 2 mps 743 mmHg 90%
23:00 +25°C° 0 mm 2 mps 743 mmHg 92%

18 June, Friday

Time Temperature Precipitation Wind Pressure Humidity
00:00 +25°C° 0 mm 1 mps 743 mmHg 93%
01:00 +25°C° 0 mm 1 mps 743 mmHg 94%
02:00 +25°C° 0 mm 1 mps 743 mmHg 95%
03:00 +24°C° 0 mm 1 mps 743 mmHg 96%
04:00 +24°C° 0 mm 1 mps 743 mmHg 96%
05:00 +24°C° 0 mm 1 mps 743 mmHg 96%
06:00 +24°C° 0 mm 1 mps 743 mmHg 96%
07:00 +25°C° 0.4 mm 1 mps 744 mmHg 95%
08:00 +26°C° 0.4 mm 1 mps 744 mmHg 94%
09:00 +26°C° 0.4 mm 1 mps 744 mmHg 93%
10:00 +27°C° 1 mm 1 mps 744 mmHg 91%
11:00 +28°C° 1 mm 1 mps 744 mmHg 88%
12:00 +28°C° 1 mm 1 mps 744 mmHg 85%
13:00 +29°C° 0.7 mm 1 mps 743 mmHg 82%
14:00 +30°C° 0.7 mm 1 mps 743 mmHg 78%
15:00 +30°C° 0.7 mm 1 mps 742 mmHg 75%
16:00 +29°C° 0.8 mm 1 mps 742 mmHg 82%
17:00 +27°C° 0.8 mm 1 mps 742 mmHg 88%
18:00 +26°C° 0.8 mm 1 mps 742 mmHg 95%
19:00 +26°C° 0.1 mm 1 mps 743 mmHg 96%
20:00 +25°C° 0.1 mm 1 mps 743 mmHg 97%
21:00 +25°C° 0.1 mm 1 mps 744 mmHg 98%
22:00 +24°C° 0 mm 1 mps 744 mmHg 98%
23:00 +24°C° 0 mm 1 mps 744 mmHg 99%

19 June, Saturday

Time Temperature Precipitation Wind Pressure Humidity
00:00 +24°C° 0 mm 1 mps 744 mmHg 99%
01:00 +24°C° 0 mm 1 mps 743 mmHg 99%
02:00 +24°C° 0 mm 1 mps 743 mmHg 99%
03:00 +22°C° 0 mm 0 mps 743 mmHg 99%
04:00 +22°C° 0 mm 0 mps 743 mmHg 99%
05:00 +24°C° 0 mm 1 mps 743 mmHg 99%
06:00 +23°C° 0 mm 1 mps 743 mmHg 99%
07:00 +25°C° 0 mm 1 mps 744 mmHg 94%
08:00 +26°C° 0 mm 1 mps 744 mmHg 89%
09:00 +27°C° 0 mm 1 mps 744 mmHg 85%
10:00 +29°C° 0.1 mm 1 mps 744 mmHg 76%
11:00 +31°C° 0.1 mm 1 mps 743 mmHg 68%
12:00 +32°C° 0.1 mm 1 mps 743 mmHg 59%
13:00 +31°C° 1.2 mm 1 mps 742 mmHg 68%
14:00 +30°C° 1.2 mm 1 mps 742 mmHg 77%
15:00 +29°C° 1.2 mm 1 mps 741 mmHg 86%
16:00 +28°C° 1.9 mm 1 mps 742 mmHg 89%
17:00 +27°C° 1.9 mm 1 mps 742 mmHg 92%
18:00 +26°C° 1.9 mm 1 mps 742 mmHg 95%
19:00 +25°C° 0.9 mm 1 mps 743 mmHg 96%
20:00 +25°C° 0.9 mm 1 mps 743 mmHg 97%
21:00 +24°C° 0.9 mm 1 mps 744 mmHg 98%
22:00 +24°C° 0 mm 1 mps 744 mmHg 98%
23:00 +24°C° 0 mm 1 mps 744 mmHg 99%
Show more